Aureole 3 Rocket - Orbit

View from above orbital plane
View from above orbital plane
View from above satellite
View from above satellite

Ground track
Ground track

The orbit data is extracted from the following two-line orbital elements,

1 12849U 81094B   13145.19816978  .00001564  00000-0  14382-3 0  6083
2 12849 082.4944 223.1436 0918084 077.1593 293.0406 13.46883495541870
Epoch (UTC): 25 May 2013 04:45:21
Eccentricity: 0.0918084
inclination: 82.4944°
perigee height: 398 km
apogee height: 1769 km
right ascension of ascending node: 223.1436°
argument of perigee: 77.1593°
revolutions per day: 13.46883495
mean anomaly at epoch: 293.0406°
orbit number at epoch: 54187

The dashed part of the orbit path shows where the satellite is in the earth's shadow,  

Developed and maintained by Chris Peat, Heavens-Above GmbH. Please read the updated FAQ before sending e-mail. Imprint. DLR